Tracking 19170 objects as of 23-May-2018
HD Live streaming from Space Station
objects crossing your sky now

NOAA 16 DEB

Track NOAA 16 DEB now!
10-day predictions


NORAD ID: 41135
Int'l Code: 2000-055BS
Perigee: 769.5 km
Apogee: 853.4 km
Inclination: 98.8 °
Period: 101.0 minutes
Semi major axis: 7182 km
RCS: Unknown
Launch date: September 21, 2000
Source: United States (US)
Launch site: AIR FORCE WESTERN TEST RANGE (AFWTR)

Note: This is SATELLITE DEBRIS
aabbcc
Your satellite tracking list
Your tracking list is empty




NASA's NSSDC Master Catalog

Two Line Element Set (TLE):
1 41135U 00055BS  18143.01772906  .00001102  00000-0  47010-3 0  9992
2 41135  98.8294 232.2730 0058412 349.2347  10.7578 14.26231528128707
Source of the keplerian elements: AFSPC